Weather in Yelets

Russia / Lipetsk Oblast     52°37′27″N   38°30′13″E
temp.,
°C
wind,
m/s
gust,
m/s
humid.,
%
clouds,
%
prec.,
mm/h
press.,
hPa
HPBL,
m
18 september, sat
sat1800:00+9e4769100 0.8 1018550
03:00+8e5966100 0.9 1019647
06:00+8e61061100 0.0 1019645
09:00+7e61162100 0.1 1020640
12:00+9ese61054100 0.1 1020764
15:00+9se61055100 0.3 1020717
18:00+7ese51281100 1.6 1019530
21:00+7e61387100 4.9 1020573
19 september, sun
sun1900:00+6e81588100 2.9 1018495
03:00+7e81788100 6.3 1017493
06:00+7e81678100 0.8 1016547
09:00+9ese81574100 0.9 1016729
12:00+8ese81575100 2.0 1015727
15:00+9ese91785100 4.1 1013722
18:00+9ese81694100 5.0 1012686
21:00+8ese61296100 7.0 1011524
20 september, mon
mon2000:00+9e51097100 0.3 1010375
03:00+9ene4798100 0.4 1009230
06:00+10ene4798100 0.0 1009266
09:00+11e4589100 0.0 1009298
12:00+12ene3695100 2.1 1008295
15:00+13ene239593 3.4 100896
18:00+12ese3598100 2.7 1007160
21:00+11sw4795100 4.6 1008403
21 september, tue
tue2100:00+10sw2494100 1.1 1009314
03:00+9sw3591100 1.3 1009370
06:00+9ssw3591100 0.0 1009335
09:00+10ssw467979 0.0 1009544
12:00+9s5886100 0.2 1010704
15:00+10sw6885100 0.4 1010728
18:00+8sw5887100 0.1 1011636
21:00+7sw4787100 0.1 1011650
22 september, wed
wed2200:00+6wsw4789100 0.1 1011783
03:00+5wsw4692100 0.1 1011734
06:00+5sw4595100 0.4 1011734
09:00+5sw5795100 0.9 1011446
12:00+5sw5895100 0.4 1011407
15:00+7w4791100 0.8 1011490
18:00+6wsw579188 0.1 1012467
21:00+5wsw4690100 0.1 1013662